WetterOnline ( https://www.wetteronline.de )

Wetter aktuell Bottighofen

Aktuelles Wetter: Konstanz (397m)

6-stündlich | Neueste Meldungen
Ortszeit Temperatur Wetter
Do, 21.11. 13:00 5.3° C bedeckt
Do, 21.11. 7:00 4.6° C bedeckt
Do, 21.11. 1:00 5.3° C bedeckt
Mi, 20.11. 19:00 5.5° C bedeckt
Mi, 20.11. 13:00 5.8° C bedeckt
Mi, 20.11. 7:00 4.7° C bewölkt
Mi, 20.11. 1:00 4.4° C bedeckt
Di, 19.11. 19:00 4.4° C bewölkt
Ortszeit Temperatur Wetter
Do, 21.11. 14:00 5.3° C bedeckt
Do, 21.11. 13:50 5.3° C bedeckt
Do, 21.11. 13:40 5.5° C bedeckt
Do, 21.11. 13:30 5.3° C bedeckt
Do, 21.11. 13:20 5.3° C bedeckt
Do, 21.11. 13:10 5.2° C bedeckt
Do, 21.11. 13:00 5.3° C bedeckt
Do, 21.11. 12:30 5.2° C bedeckt
Do, 21.11. 12:00 5.1° C bedeckt
Do, 21.11. 11:30 4.9° C bedeckt
Do, 21.11. 11:00 4.9° C bedeckt
Ortszeit Relative Feuchte Sichtweite
Do, 21.11. 13:00 79% 12 km
Do, 21.11. 7:00 80% 12 km
Do, 21.11. 1:00 80% 15 km
Mi, 20.11. 19:00 78% 18 km
Mi, 20.11. 13:00 73% 23 km
Mi, 20.11. 7:00 82% 15 km
Mi, 20.11. 1:00 84% 21 km
Di, 19.11. 19:00 80% 24 km
Ortszeit Relative Feuchte Sichtweite
Do, 21.11. 14:00 77% 14 km
Do, 21.11. 13:50 77% -
Do, 21.11. 13:40 78% -
Do, 21.11. 13:30 78% 13 km
Do, 21.11. 13:20 78% -
Do, 21.11. 13:10 78% -
Do, 21.11. 13:00 79% 12 km
Do, 21.11. 12:30 78% 13 km
Do, 21.11. 12:00 78% 13 km
Do, 21.11. 11:30 79% 13 km
Do, 21.11. 11:00 79% 13 km
Ortszeit Niederschlagsmenge Niederschlagsart
Do, 21.11. 13:00 0.0 l/m2 in 6 Std. -
Do, 21.11. 7:00 0.0 l/m2 in 12 Std. -
Do, 21.11. 1:00 0.0 l/m2 in 6 Std. -
Mi, 20.11. 19:00 0.0 l/m2 in 12 Std. -
Mi, 20.11. 13:00 0.0 l/m2 in 6 Std. -
Mi, 20.11. 7:00 0.0 l/m2 in 12 Std. -
Mi, 20.11. 1:00 0.0 l/m2 in 6 Std. -
Di, 19.11. 19:00 0.0 l/m2 in 12 Std. -
Ortszeit Niederschlagsmenge Niederschlagsart
Do, 21.11. 14:00 0.0 l/m2 in 1 Std. -
Do, 21.11. 13:50 keine Meldung -
Do, 21.11. 13:40 keine Meldung -
Do, 21.11. 13:30 0.0 l/m2 in 1 Std. -
Do, 21.11. 13:20 keine Meldung -
Do, 21.11. 13:10 keine Meldung -
Do, 21.11. 13:00 0.0 l/m2 in 1 Std. -
Do, 21.11. 12:30 0.0 l/m2 in 1 Std. -
Do, 21.11. 12:00 0.0 l/m2 in 1 Std. -
Do, 21.11. 11:30 0.0 l/m2 in 1 Std. -
Do, 21.11. 11:00 0.0 l/m2 in 1 Std. -
Ortszeit Stärke Spitze Richtung
km/h Bft. km/h Grad Sektor
Do, 21.11. 13:00 4 1 11 250° W
Do, 21.11. 7:00 4 1 11 250° W
Do, 21.11. 1:00 4 1 7 140° SO
Mi, 20.11. 19:00 4 1 14 270° W
Mi, 20.11. 13:00 7 2 18 80° O
Mi, 20.11. 7:00 7 2 17 70° O
Mi, 20.11. 1:00 6 1 9 10° N
Di, 19.11. 19:00 4 1 11 200° S
Ortszeit Stärke Spitze Richtung
km/h Bft. km/h Grad Sektor
Do, 21.11. 14:00 6 1 11 300° NW
Do, 21.11. 13:50 6 1 - 300° NW
Do, 21.11. 13:40 6 1 - 270° W
Do, 21.11. 13:30 6 1 11 290° W
Do, 21.11. 13:20 6 1 - 290° W
Do, 21.11. 13:10 6 1 - 290° W
Do, 21.11. 13:00 4 1 7 250° W
Do, 21.11. 12:30 4 1 7 220° SW
Do, 21.11. 12:00 0 0 11 - -
Do, 21.11. 11:30 4 1 11 280° W
Do, 21.11. 11:00 6 1 7 320° NW
Ortszeit Untergrenze Bedeckung Gattung
total tief tief mittel hoch
Do, 21.11. 13:00 390 m 8/8 8/8 - - -
Do, 21.11. 7:00 450 m 8/8 8/8 - - -
Do, 21.11. 1:00 510 m 8/8 8/8 - - -
Mi, 20.11. 19:00 570 m 8/8 8/8 - - -
Mi, 20.11. 13:00 600 m 8/8 8/8 - - -
Mi, 20.11. 7:00 630 m 7/8 8/8 - - -
Mi, 20.11. 1:00 690 m 8/8 8/8 - - -
Di, 19.11. 19:00 1200 m 7/8 7/8 - - -
Ortszeit Bedeckungsgrad in Achtel und Wolkenuntergrenze
Do, 21.11. 14:00 8(390m)
Do, 21.11. 13:50 8(390m)
Do, 21.11. 13:40 8(390m)
Do, 21.11. 13:30 8(390m)
Do, 21.11. 13:20 8(390m)
Do, 21.11. 13:10 8(390m)
Do, 21.11. 13:00 8(390m)
Do, 21.11. 12:30 8(390m)
Do, 21.11. 12:00 8(390m)
Do, 21.11. 11:30 8(360m)
Do, 21.11. 11:00 8(360m)
Ortszeit Luftdruck NN (hPa) Tendenz (hPa in 3 Std.)
Do, 21.11. 13:00 1011 - 0,6
Do, 21.11. 7:00 1011 - 0,4
Do, 21.11. 1:00 1012 - 1,2
Mi, 20.11. 19:00 1014 - 0,4
Mi, 20.11. 13:00 1015 - 0,9
Mi, 20.11. 7:00 1017 - 1,0
Mi, 20.11. 1:00 1018 - 0,8
Di, 19.11. 19:00 1019 + 0,5
Ortszeit Luftdruck NN (hPa) Tendenz (hPa in 3 Std.)
Do, 21.11. 14:00 1010 - 0,9
Do, 21.11. 13:50 1010 keine Meldung
Do, 21.11. 13:40 1010 keine Meldung
Do, 21.11. 13:30 1010 - 0,8
Do, 21.11. 13:20 1010 keine Meldung
Do, 21.11. 13:10 1010 keine Meldung
Do, 21.11. 13:00 1011 - 0,6
Do, 21.11. 12:30 1011 - 0,5
Do, 21.11. 12:00 1011 - 0,5
Do, 21.11. 11:30 1011 - 0,3
Do, 21.11. 11:00 1011 0,0
Ortszeit Schneehöhe (cm)
Do, 21.11. 13:00 0
Do, 21.11. 7:00 0
Do, 21.11. 1:00 0
Mi, 20.11. 19:00 0
Mi, 20.11. 13:00 0
Mi, 20.11. 7:00 0
Mi, 20.11. 1:00 0
Di, 19.11. 19:00 0
Ortszeit Schneehöhe (cm)
Do, 21.11. 14:00 0
Do, 21.11. 13:50 0
Do, 21.11. 13:40 0
Do, 21.11. 13:30 0
Do, 21.11. 13:20 0
Do, 21.11. 13:10 0
Do, 21.11. 13:00 0
Do, 21.11. 12:30 0
Do, 21.11. 12:00 0
Do, 21.11. 11:30 0
Do, 21.11. 11:00 0
Link zu dieser Seite / Seite empfehlen

Das Wetter in ...